Back to catalog

STARLINK-36718

AliveCommunicationsSSO
NORAD 67715·PAYLOAD·🇺🇸 United States

Launched Feb 7, 2026 from Vandenberg Space Force Base

Loading…

Next Passes (next 24 hours)

TLE

FreshSource: CelesTrak SupGP

Epoch: Sep 14, 2026, 21:24 UTC

1 67715C 26025Y   26257.89215278 -.00030961  00000+0 -96071-3 0  2578
2 67715  97.2853   7.8777 0000862  99.3986   2.1222 15.33468688    10

Track STARLINK-36718 in real time with AllMySat

Download on the App Store